Location: Medlow Airstrip Trail, Medlow Bath NSW 2780, Australia
(33.6682°S, 150.3233°E)
Time: 08:35:58
(UTC+10:00)

S-56A Canister/Altair - Visible Passes

Search period start: 19 September 2019 00:00
Search period end: 29 September 2019 00:00
Orbit: 633 x 2499 km, 38.9° (Epoch: 17 September)

Date Brightness Start Highest point End Pass type
(mag) Time Alt. Az. Time Alt. Az. Time Alt. Az.
19 Sep 9.2 02:35:13 43° SE 02:35:13 43° SE 02:41:27 10° E visible
19 Sep 8.8 04:32:39 20° WSW 04:38:15 82° SSE 04:49:26 10° ENE visible
20 Sep 10.0 02:04:18 26° ESE 02:04:18 26° ESE 02:07:56 10° ESE visible
20 Sep 8.6 04:01:43 33° WSW 04:05:17 76° SSE 04:15:39 10° ENE visible
21 Sep 10.6 01:33:25 14° ESE 01:33:25 14° ESE 01:34:31 10° ESE visible
21 Sep 8.4 03:30:51 55° SW 03:32:24 70° SSE 03:41:55 10° E visible
22 Sep 8.5 03:00:01 64° SE 03:00:01 64° SE 03:08:16 10° E visible
22 Sep 8.9 04:57:27 12° WSW 05:04:18 62° NNW 05:15:14 10° NE visible
23 Sep 9.3 02:29:14 39° ESE 02:29:14 39° ESE 02:34:41 10° E visible
23 Sep 8.6 04:26:41 23° WSW 04:31:22 68° NNW 04:41:41 10° NE visible
24 Sep 10.1 01:58:31 22° E 01:58:31 22° E 02:01:13 10° E visible
24 Sep 8.3 03:55:57 42° W 03:58:30 74° NNW 04:08:09 10° ENE visible
25 Sep 8.0 03:25:18 77° WNW 03:25:43 81° NNW 03:34:39 10° ENE visible
26 Sep 8.6 02:54:43 54° ENE 02:54:43 54° ENE 03:01:11 10° ENE visible
26 Sep 9.4 04:52:11 14° W 04:57:24 33° NNW 05:06:03 10° NNE visible
26 Sep 9.8 20:04:25 10° NNW 20:05:01 12° NNW 20:05:01 12° NNW visible
27 Sep 9.7 02:24:13 28° ENE 02:24:13 28° ENE 02:27:48 10° ENE visible
27 Sep 9.0 04:21:40 26° WNW 04:24:32 36° NNW 04:32:52 10° NNE visible
27 Sep 9.1 19:31:56 10° NNW 19:34:45 19° NNE 19:34:45 19° NNE visible
28 Sep 10.5 01:53:46 13° ENE 01:53:46 13° ENE 01:54:28 10° ENE visible
28 Sep 8.7 03:51:14 39° NW 03:51:43 39° NNW 03:59:40 10° NE visible
28 Sep 9.0 18:59:26 10° N 19:03:26 18° NNE 19:04:29 17° NE visible
28 Sep 10.2 21:01:54 10° WNW 21:01:59 10° WNW 21:01:59 10° WNW visible
